Location: Skalnate Pleso
(49.1889°N, 20.2450°E)
Time: 14:49:59
(UTC+02:00)

Cosmos 1605 Rocket - Pass Details

Date: 24 February 2020
Orbit: 944 x 1007 km, 82.9° (Epoch: 05 April)

Event Time Altitude Azimuth Distance (km) Brightness Sun altitude
Rises 18:06:11 0° 236° (WSW) 3,724 8.2 -9.4°
Reaches altitude 10° 18:09:30 10° 253° (WSW) 2,774 7.8 -10.0°
Maximum altitude 18:14:00 20° 299° (WNW) 2,134 6.6 -10.7°
Drops below altitude 10° 18:18:31 10° 344° (NNW) 2,761 6.6 -11.4°
Sets 18:21:50 0° 2° (N) 3,703 7.0 -12.0°
